Location: Henry Coe State Park
(37.1875°N, 121.5503°W)
Time: 04:10:26
(UTC-07:00)

Daily predictions for brighter satellites

Satellite Brightness Start Highest point End
(mag) Time Altitude Azimuth Time Altitude Azimuth Time Altitude Azimuth
H-2A R/B 4.3 00:29:01 15° W 00:29:02 15° W 00:31:57 10° WNW
Cosmos 2369 Rocket 3.5 00:40:13 31° NE 00:40:13 31° NE 00:43:22 10° NE
USA 229 DEB 4.1 00:48:12 10° NW 00:54:12 53° W 00:54:12 53° W
USA 229 4.1 00:48:18 10° NW 00:54:19 53° W 00:54:19 53° W
CZ-2C R/B 3.6 01:03:41 10° NNE 01:07:08 42° NNE 01:07:08 42° NNE
NOSS 3-1 (A) 4.3 01:06:16 10° NNW 01:13:53 63° NE 01:15:25 54° E
Cosmos 2285 Rocket 4.2 01:15:30 65° NNW 01:15:30 65° NNW 01:21:11 10° NNE
Cosmos 1605 Rocket 4.5 01:21:03 55° WNW 01:21:03 55° WNW 01:26:44 10° N
CZ-2C R/B 4.0 01:25:50 43° NNE 01:25:50 43° NNE 01:29:21 10° N
Cosmos 1459 Rocket 4.4 01:26:12 55° NE 01:26:12 55° NE 01:31:17 10° NNE
Cosmos 1943 Rocket 3.2 01:34:26 38° NE 01:34:26 38° NE 01:38:06 10° NNE
ATLAS 2AS CENTAUR R/B 4.2 01:27:50 10° NNW 01:35:15 37° NE 01:40:46 16° ESE
Lacrosse 5 3.1 01:37:15 39° NNE 01:37:15 39° NNE 01:40:37 10° NE
Cosmos 2173 Rocket 4.2 01:40:50 69° NNE 01:40:50 69° NNE 01:46:24 10° N
NOSS 3-1 (C) 4.0 01:39:09 10° NW 01:46:34 70° WSW 01:46:34 70° WSW
BREEZE-M DEB (TANK) 4.5 02:06:23 10° NW 02:10:57 62° NE 02:30:31 10° ESE
Cosmos 2098 Rocket 4.1 02:14:02 67° E 02:14:02 67° E 02:21:09 10° NNE
Lacrosse 5 rocket 3.9 02:18:09 15° NNW 02:18:09 15° NNW 02:19:33 10° N
Cosmos 2369 Rocket 3.8 02:21:59 24° WNW 02:22:13 24° WNW 02:26:43 10° N
Cosmos 1818 4.1 02:23:58 52° NNW 02:23:58 52° NNW 02:28:41 10° NNE
Cosmos 2219 3.8 02:21:27 10° N 02:26:55 49° ENE 02:27:36 47° E
SeaSat 1 3.8 02:36:06 31° NW 02:36:06 31° NW 02:38:47 10° NNW
Cosmos 2228 4.4 02:36:33 36° NE 02:36:33 36° NE 02:39:30 10° NNE
Cosmos 2058 Rocket 4.1 02:42:56 44° N 02:42:56 44° N 02:45:59 10° N
CZ-2D R/B 4.3 02:40:55 10° NE 02:44:19 17° E 02:46:14 14° ESE
SL-08 R/B 3.9 02:45:37 53° ENE 02:45:37 53° ENE 02:49:57 10° N
Cosmos 968 Rocket 4.2 02:40:25 10° NNW 02:44:09 45° NW 02:44:09 45° NW
Geosat 4.2 02:41:28 10° NNE 02:45:55 69° NE 02:45:55 69° NE
ARIANE 5 R/B 4.2 02:45:47 10° NE 02:49:53 24° E 02:50:51 23° ESE
Cosmos 2208 Rocket 4.1 02:53:22 70° ENE 02:53:22 70° ENE 02:58:13 10° NNE
IRAS Rocket 4.2 02:56:29 10° NNE 03:02:07 78° ESE 03:02:31 74° SSE
NOSS 3-3 (A) 3.8 03:01:52 70° WSW 03:02:36 79° NW 03:09:15 10° NNE
NOSS 3-3 (C) 3.8 03:01:58 70° WSW 03:02:41 80° WNW 03:09:20 10° NNE
IRS-P3 4.1 02:58:52 10° N 03:04:05 68° WNW 03:04:05 68° WNW
Cosmos 2233 Rocket 3.8 03:04:09 70° WSW 03:04:36 74° W 03:10:45 10° N
Cosmos 2346 Rocket 4.5 03:01:08 10° N 03:07:25 82° E 03:08:50 56° SSE
Cosmos 1241 Rocket 4.4 03:04:14 10° NW 03:10:39 64° WSW 03:10:58 63° SW
Cosmos 1777 Rocket 4.2 03:06:42 10° NNW 03:11:07 57° WNW 03:11:07 57° WNW
CBERS-1 3.9 03:07:54 10° N 03:13:03 78° WNW 03:13:05 78° W
Cosmos 1943 Rocket 3.8 03:15:57 20° WNW 03:16:45 21° NW 03:20:53 10° N
Cosmos 1656 Rocket 4.3 03:16:59 41° WNW 03:17:25 41° WNW 03:22:46 10° N
Lacrosse 5 4.4 03:16:47 10° WNW 03:19:32 14° NNW 03:22:17 10° N
GEOS 3 Rocket 4.2 03:16:19 10° SE 03:21:25 56° NE 03:26:28 10° NNW
Cosmos 44 4.1 03:16:23 10° NNW 03:21:25 51° NE 03:25:31 14° SE
NPP 3.8 03:16:45 10° N 03:22:00 55° WNW 03:22:20 54° W
ATLAS 2AS CENTAUR R/B 3.1 03:18:49 10° NW 03:26:33 53° WSW 03:28:04 46° SSW
Cosmos 1707 4.3 03:24:28 10° NNE 03:28:02 32° ENE 03:29:14 26° ESE
GENESIS II 4.5 03:31:34 69° N 03:31:34 69° N 03:35:17 10° NNE
Cosmos 1072 Rocket 4.5 03:29:24 48° S 03:31:22 90° ESE 03:37:49 10° N
ERS-2 2.9 03:32:48 10° N 03:35:42 44° NNW 03:35:42 44° NNW
USA 161 3.4 03:41:07 29° N 03:41:07 29° N 03:42:42 10° N
SL-16 R/B 2.8 03:34:47 16° SSE 03:39:50 65° ENE 03:45:56 10° N
Cosmos 972 Rocket 3.8 03:35:04 10° NNW 03:40:01 89° ENE 03:41:40 44° SSE
Resurs 1-4 Rocket 2.5 03:35:58 10° NNE 03:41:10 57° E 03:43:11 35° SSE
Cosmos 1891 Rocket 4.4 03:40:42 38° S 03:43:09 78° E 03:49:13 10° N
Meteor 2-5 Rocket 3.9 03:38:21 10° N 03:44:13 76° E 03:47:47 25° SSE
UNK 4.3 03:42:23 25° SE 03:44:56 58° ENE 03:49:33 10° N
Okean O Rocket 3.6 03:47:08 10° NE 03:50:37 23° E 03:53:46 12° SE
Cosmos 468 Rocket 4.0 03:50:04 43° S 03:51:45 74° ESE 03:56:56 10° NNE
Cosmos 2034 Rocket 3.9 03:50:42 35° S 03:53:33 89° W 03:59:48 10° N
GPS 2-04 Rocket1 3.9 03:57:08 29° SE 03:57:08 29° SE 03:59:49 10° E
ASTRO E2 3.9 03:58:05 29° SE 03:58:05 29° SE 04:00:47 10° ESE
ADEOS 4.1 03:55:53 10° N 04:00:46 41° WNW 04:02:00 36° WSW
BREEZE-M DEB (TANK) 2.1 03:56:21 10° NW 04:02:49 69° SW 04:03:32 49° SSE
MOS 1-B 4.4 03:59:19 10° NNE 04:05:10 77° ESE 04:08:34 26° S
Cosmos 1656 3.9 04:03:24 29° S 04:06:19 66° ESE 04:11:58 10° NNE
Cosmos 2082 3.7 04:01:03 10° NNW 04:06:43 85° ENE 04:12:20 10° SSE
Cosmos 1898 Rocket 3.5 04:03:18 10° NNW 04:08:40 84° ENE 04:14:00 10° SSE
Cosmos 1697 Rocket 3.3 04:07:33 21° S 04:11:05 52° ESE 04:16:35 10° NNE
ATLAS CENTAUR R/B 2.0 04:11:23 32° S 04:13:38 66° ESE 04:18:38 10° NE
BREEZE-M DEB (TANK) 4.5 04:11:54 10° NW 04:14:01 19° N 04:16:43 10° NE
Cosmos 1766 3.5 04:12:39 32° S 04:14:23 70° E 04:18:20 10° NNE
Nadezhda 4 Rocket 4.0 04:10:37 10° N 04:16:48 84° E 04:23:02 10° S
SME Rocket 3.9 04:14:27 29° SSW 04:16:54 56° W 04:23:52 10° NNW
Cosmos 1980 Rocket 3.5 04:12:34 11° SSE 04:17:21 34° ESE 04:22:23 10° NE
SL-8 R/B 3.5 04:15:08 10° WNW 04:19:54 70° SW 04:24:38 10° SE
Cosmos 1076 Rocket 4.0 04:16:34 10° N 04:20:51 59° E 04:25:04 10° SSE
Cosmos 2227 Rocket 2.1 04:15:20 10° NNW 04:20:59 69° WSW 04:26:35 10° S
NOSS 2-1 (D) 3.6 04:20:52 39° WSW 04:22:04 57° NW 04:26:19 10° NNE
Cosmos 1953 3.6 04:18:50 12° SSE 04:22:16 38° E 04:26:02 10° NNE
NOSS 2-1 (C) 3.6 04:21:52 38° WSW 04:23:06 58° NW 04:27:22 10° NNE
Cosmos 220 Rocket 3.9 04:19:21 10° NNW 04:23:40 69° WSW 04:26:51 17° S
Cosmos 405 Rocket 3.3 04:20:36 10° NNW 04:24:25 39° W 04:25:07 36° WSW
CZ-2D R/B 2.4 04:19:21 10° N 04:24:43 57° WNW 04:27:34 27° SW
Cosmos 972 4.3 04:20:10 10° NNW 04:25:00 67° WSW 04:29:38 12° S
ISS 0.0 04:24:21 10° N 04:25:37 12° NNE 04:26:54 10° NE
SEDSat Delta rocket 4.4 04:26:16 25° SSW 04:26:16 25° SSW 04:30:21 10° SE
UNKNOWN OBJECT B 2.8 04:22:17 10° N 04:26:12 65° WNW 04:27:41 35° SW
Cosmos 841 Rocket 3.8 04:23:17 19° S 04:27:04 64° ESE 04:32:18 10° NNE
Cosmos 1937 Rocket 3.4 04:22:42 10° NNW 04:27:54 89° ENE 04:33:06 10° SSE
ARIANE 5 R/B 3.3 04:24:24 10° N 04:29:02 36° WNW 04:31:12 25° WSW
Cosmos 1766 Rocket 4.0 04:25:06 10° N 04:29:27 64° E 04:33:50 10° SSE
Cosmos 2369 4.3 04:27:50 26° WSW 04:30:31 42° WNW 04:35:53 10° N
Cosmos 1408 Rocket 3.7 04:26:17 10° N 04:30:40 73° E 04:35:03 10° SSE
NOSS 7 (E) 4.5 04:31:12 33° SSW 04:32:39 76° ESE 04:36:03 10° NE
MTI 3.7 04:32:52 29° S 04:34:18 64° WSW 04:37:35 10° NNW
Meteor 1-22 Rocket 4.5 04:33:07 21° SSW 04:37:10 63° W 04:43:14 10° N
EO 1 Del DPAF 3.8 04:36:07 30° SW 04:37:18 37° W 04:40:56 10° NNW
Cosmos 1763 Rocket 3.5 04:33:50 20° SSW 04:37:32 89° WNW 04:42:47 10° NNE
NOSS 2-1 (E) 4.0 04:36:42 26° WSW 04:38:28 43° NW 04:42:43 10° NNE
Cosmos-2242 3.2 04:35:57 13° S 04:39:48 70° E 04:44:07 10° NNE
Cosmos 2297 Rocket 2.2 04:37:39 10° NNW 04:43:14 63° WSW 04:48:47 10° S
Cosmos 1634 Rocket 4.0 04:38:20 10° S 04:44:33 87° E 04:50:51 10° N
Meteor 1-24 Rocket 3.9 04:40:41 10° NNW 04:46:12 54° W 04:51:53 10° S
OE (NEXTSAT) 4.4 04:47:06 26° SW 04:49:01 76° SSE 04:52:39 10° ENE
NOSS 3-4 (A) 3.9 04:42:05 10° NNW 04:49:09 83° ENE 04:56:38 10° SSE
ARGOS Delta rocket 4.4 04:44:00 10° NNE 04:49:10 62° E 04:54:02 10° S
NOSS 3-4 (C) 4.0 04:42:11 10° NNW 04:49:18 82° ENE 04:56:48 10° SE
Cosmos 1805 3.2 04:49:04 12° S 04:52:45 85° E 04:56:41 10° N
Milstar 3 Cent rocket 3.4 04:49:00 19° SW 04:52:59 42° SSE 05:02:34 10° ESE
BREEZE-M DEB (TANK) 2.7 04:54:25 18° S 04:54:25 18° S 04:55:14 10° SSE
PAYLOAD B 4.3 04:47:52 10° NNE 04:53:31 89° W 04:59:06 10° SSW
IRS-1C Rocket 4.1 04:49:08 10° N 04:54:21 66° WNW 04:59:07 12° SSW
SL-16 R/B 4.2 04:51:09 10° SSE 04:55:41 25° ESE 05:00:15 10° NE
Cosmos 1437 4.0 04:54:28 10° N 04:57:41 45° E 05:00:53 10° SSE
ADEOS II 3.6 04:54:33 10° NNE 04:59:23 36° E 05:04:11 10° SSE
OAO 3 Rocket 4.0 04:56:46 16° WSW 04:59:42 29° SSW 05:03:45 10° SE
CZ-4B R/B 2.7 04:57:27 10° N 05:01:30 85° WNW 05:05:19 10° SSW
Cosmos 1092 Rocket 4.1 04:55:46 10° NNW 05:01:54 58° W 05:08:03 10° S
USA 81 4.1 04:58:34 10° S 05:03:50 86° E 05:09:09 10° N
Cosmos 1378 3.8 05:00:49 10° NNW 05:04:17 35° W 05:07:38 11° SSW
Cosmos 1441 Rocket 3.6 05:02:13 10° NNW 05:06:03 47° W 05:09:52 10° SSW
Meteor 1-21 Rocket 4.4 05:03:47 10° N 05:09:43 90° E 05:15:39 10° S
CZ-4B R/B 3.4 05:09:54 10° N 05:15:22 59° WNW 05:20:43 10° SSW
Cosmos 1733 4.3 05:13:38 10° SSE 05:17:15 45° E 05:20:54 10° NNE
ADEOS Rocket 4.0 05:11:07 10° NNE 05:17:24 56° ESE 05:24:19 10° S
Cosmos 540 Rocket 3.7 05:14:00 10° S 05:19:08 72° ESE 05:24:19 10° NNE
Resurs 1-4 Rocket 3.8 05:17:15 10° NNW 05:20:29 17° WNW 05:23:43 10° WSW
SL-16 R/B 3.9 05:20:00 10° SW 05:23:53 17° W 05:27:47 10° NW
Okean O Rocket 2.7 05:23:13 10° NNW 05:26:57 28° WNW 05:30:41 10° SW
DELTA 2 R/B (2) 3.2 05:30:46 10° W 05:32:41 58° N 05:34:22 10° ENE
BREEZE-M DEB (TANK) 4.1 05:30:19 10° SW 05:45:47 71° SE 05:49:52 10° NE
